Photometre #855[NE_1.6_Dp] Loftus_MO AOT

File : 20220825_855.hum

25/08/2022,06:00:48,TEMP=14.3,BA=5.64,STAT.A,ExtBa=12.20
25/08/2022,06:05:13,TEMP=14.4,BA=5.64,STAT.A,ExtBa=12.20
25/08/2022,06:10:23,TEMP=14.4,BA=5.64,STAT.A,ExtBa=12.20
25/08/2022,06:16:29,TEMP=14.4,BA=5.64,STAT.A,ExtBa=12.20
25/08/2022,06:23:49,TEMP=14.4,BA=5.64,STAT.A,ExtBa=12.20
25/08/2022,06:32:49,TEMP=14.5,BA=5.64,STAT.A,ExtBa=12.20
25/08/2022,06:44:07,TEMP=14.6,BA=5.64,STAT.B,ExtBa=12.20
25/08/2022,06:49:29,TEMP=14.7,BA=5.64,STAT.A,ExtBa=12.20
25/08/2022,06:55:30,TEMP=14.7,BA=5.60,STAT.A,ExtBa=12.20
25/08/2022,07:02:15,TEMP=14.8,BA=5.64,STAT.A,ExtBa=12.20
25/08/2022,07:09:55,TEMP=14.8,BA=5.64,STAT.A,ExtBa=12.20
25/08/2022,07:18:42,TEMP=14.8,BA=5.60,STAT.C,ExtBa=12.20
25/08/2022,07:28:52,TEMP=14.9,BA=5.60,STAT.A,ExtBa=12.20
25/08/2022,07:40:49,TEMP=15.0,BA=5.64,STAT.A,ExtBa=12.20
25/08/2022,07:54:23,TEMP=15.1,BA=5.64,STAT.D,ExtBa=12.20
25/08/2022,07:56:22,TEMP=15.6,BA=5.64,STAT.A,ExtBa=12.20
25/08/2022,08:09:23,TEMP=15.3,BA=5.60,STAT.D,ExtBa=12.20
25/08/2022,08:12:37,TEMP=15.5,BA=5.60,STAT.A,ExtBa=12.20
25/08/2022,08:24:23,TEMP=15.4,BA=5.64,STAT.D,ExtBa=12.20
25/08/2022,08:34:47,TEMP=15.6,BA=5.64,STAT.B,ExtBa=12.20
25/08/2022,08:36:44,TEMP=16.1,BA=5.64,STAT.D,ExtBa=12.20
25/08/2022,08:48:23,TEMP=15.9,BA=5.64,STAT.D,ExtBa=12.20
25/08/2022,08:51:16,TEMP=16.1,BA=5.64,STAT.D,ExtBa=12.20
25/08/2022,09:03:24,TEMP=15.9,BA=5.64,STAT.D,ExtBa=12.20
25/08/2022,09:06:17,TEMP=16.1,BA=5.64,STAT.F,ExtBa=12.20
25/08/2022,09:18:24,TEMP=15.6,BA=5.64,STAT.D,ExtBa=12.20
25/08/2022,09:21:16,TEMP=15.7,BA=5.64,STAT.D,ExtBa=12.20
25/08/2022,09:33:24,TEMP=15.3,BA=5.64,STAT.D,ExtBa=12.20
25/08/2022,09:36:16,TEMP=15.6,BA=5.64,STAT.D,ExtBa=12.20
25/08/2022,09:48:24,TEMP=15.6,BA=5.64,STAT.D,ExtBa=12.20
25/08/2022,09:51:16,TEMP=15.9,BA=5.64,STAT.D,ExtBa=12.20
25/08/2022,10:03:24,TEMP=15.6,BA=5.64,STAT.D,ExtBa=12.20
25/08/2022,10:06:17,TEMP=15.9,BA=5.64,STAT.F,ExtBa=12.20
25/08/2022,10:12:24,TEMP=15.8,BA=5.64,STAT.D,ExtBa=12.20
25/08/2022,10:21:16,TEMP=15.8,BA=5.64,STAT.D,ExtBa=12.20
25/08/2022,10:33:24,TEMP=15.7,BA=5.64,STAT.D,ExtBa=12.20
25/08/2022,10:36:16,TEMP=15.9,BA=5.64,STAT.D,ExtBa=12.20
25/08/2022,10:48:24,TEMP=15.7,BA=5.64,STAT.D,ExtBa=12.20
25/08/2022,10:51:16,TEMP=15.9,BA=5.64,STAT.D,ExtBa=12.20
25/08/2022,11:03:24,TEMP=15.6,BA=5.64,STAT.D,ExtBa=12.20
25/08/2022,11:06:18,TEMP=15.8,BA=5.64,STAT.F,ExtBa=12.20
25/08/2022,11:18:24,TEMP=15.6,BA=5.64,STAT.D,ExtBa=12.20
25/08/2022,11:21:16,TEMP=15.9,BA=5.64,STAT.D,ExtBa=12.20
25/08/2022,11:33:24,TEMP=15.7,BA=5.64,STAT.D,ExtBa=12.20
25/08/2022,11:36:16,TEMP=15.9,BA=5.64,STAT.D,ExtBa=12.20
25/08/2022,11:48:24,TEMP=15.7,BA=5.64,STAT.D,ExtBa=12.20
25/08/2022,11:51:16,TEMP=15.9,BA=5.64,STAT.D,ExtBa=12.20
25/08/2022,12:03:24,TEMP=15.2,BA=5.64,STAT.D,ExtBa=12.20
25/08/2022,12:06:18,TEMP=15.4,BA=5.64,STAT.F,ExtBa=12.20
25/08/2022,12:18:24,TEMP=15.1,BA=5.64,STAT.D,ExtBa=12.20
25/08/2022,12:21:16,TEMP=15.3,BA=5.64,STAT.D,ExtBa=12.20
25/08/2022,12:33:24,TEMP=15.4,BA=5.64,STAT.D,ExtBa=12.20
25/08/2022,12:36:16,TEMP=15.7,BA=5.64,STAT.D,ExtBa=12.20
25/08/2022,12:48:24,TEMP=15.7,BA=5.64,STAT.D,ExtBa=12.20
25/08/2022,12:51:16,TEMP=16.0,BA=5.64,STAT.D,ExtBa=12.20
25/08/2022,13:03:24,TEMP=15.7,BA=5.64,STAT.D,ExtBa=12.20
25/08/2022,13:06:18,TEMP=15.8,BA=5.64,STAT.F,ExtBa=12.20
25/08/2022,13:18:24,TEMP=15.2,BA=5.64,STAT.D,ExtBa=12.20
25/08/2022,13:21:16,TEMP=15.3,BA=5.64,STAT.D,ExtBa=12.20
25/08/2022,13:33:24,TEMP=15.1,BA=5.64,STAT.D,ExtBa=12.20
25/08/2022,13:36:16,TEMP=15.3,BA=5.64,STAT.D,ExtBa=12.20
25/08/2022,13:48:24,TEMP=15.3,BA=5.64,STAT.D,ExtBa=12.20
25/08/2022,13:51:16,TEMP=15.6,BA=5.64,STAT.D,ExtBa=12.20
25/08/2022,14:03:24,TEMP=15.8,BA=5.64,STAT.D,ExtBa=12.20
25/08/2022,14:06:17,TEMP=16.1,BA=5.64,STAT.F,ExtBa=12.20
25/08/2022,14:18:24,TEMP=16.1,BA=5.64,STAT.D,ExtBa=12.20
25/08/2022,14:21:16,TEMP=16.4,BA=5.64,STAT.D,ExtBa=12.20
25/08/2022,14:33:24,TEMP=16.4,BA=5.64,STAT.D,ExtBa=12.20
25/08/2022,14:36:16,TEMP=16.6,BA=5.64,STAT.D,ExtBa=12.20
25/08/2022,14:48:24,TEMP=16.9,BA=5.64,STAT.D,ExtBa=12.20
25/08/2022,14:51:16,TEMP=17.5,BA=5.60,STAT.D,ExtBa=12.20
25/08/2022,15:03:24,TEMP=18.1,BA=5.64,STAT.D,ExtBa=12.20
25/08/2022,15:06:17,TEMP=18.5,BA=5.64,STAT.F,ExtBa=12.20
25/08/2022,15:32:06,TEMP=22.2,BA=5.56,STAT.D,ExtBa=12.10
25/08/2022,15:36:15,TEMP=21.7,BA=5.56,STAT.D,ExtBa=12.10
25/08/2022,15:38:25,TEMP=21.9,BA=5.56,STAT.B,ExtBa=12.10
25/08/2022,15:48:23,TEMP=21.7,BA=5.52,STAT.D,ExtBa=12.10
25/08/2022,15:51:23,TEMP=21.4,BA=5.56,STAT.D,ExtBa=12.10
25/08/2022,15:54:23,TEMP=21.3,BA=5.56,STAT.D,ExtBa=12.10
25/08/2022,15:59:57,TEMP=20.7,BA=5.56,STAT.A,ExtBa=12.10
25/08/2022,16:12:23,TEMP=19.7,BA=5.64,STAT.D,ExtBa=12.10
25/08/2022,16:15:23,TEMP=19.9,BA=5.64,STAT.D,ExtBa=12.10
25/08/2022,16:17:28,TEMP=20.4,BA=5.64,STAT.A,ExtBa=12.10
25/08/2022,16:21:23,TEMP=20.5,BA=5.60,STAT.D,ExtBa=12.10
25/08/2022,16:24:23,TEMP=20.9,BA=5.60,STAT.D,ExtBa=12.10
25/08/2022,16:27:23,TEMP=21.2,BA=5.60,STAT.D,ExtBa=12.10
25/08/2022,16:30:23,TEMP=21.4,BA=5.64,STAT.D,ExtBa=12.10
25/08/2022,16:32:26,TEMP=21.7,BA=5.64,STAT.A,ExtBa=12.10
25/08/2022,16:36:23,TEMP=21.3,BA=5.64,STAT.D,ExtBa=12.10
25/08/2022,16:39:23,TEMP=21.2,BA=5.64,STAT.D,ExtBa=12.10
25/08/2022,16:42:23,TEMP=21.2,BA=5.56,STAT.D,ExtBa=12.10
25/08/2022,16:44:23,TEMP=21.4,BA=5.56,STAT.A,ExtBa=12.10
25/08/2022,16:48:23,TEMP=21.0,BA=5.56,STAT.D,ExtBa=12.10
25/08/2022,16:51:23,TEMP=21.0,BA=5.52,STAT.D,ExtBa=12.10
25/08/2022,16:53:52,TEMP=21.0,BA=5.52,STAT.C,ExtBa=12.10
25/08/2022,17:18:13,TEMP=19.8,BA=5.52,STAT.A,ExtBa=12.10
25/08/2022,17:23:52,TEMP=19.2,BA=5.52,STAT.A,ExtBa=12.10
25/08/2022,17:26:12,TEMP=19.2,BA=5.52,STAT.A,ExtBa=12.10
25/08/2022,17:28:29,TEMP=19.2,BA=5.52,STAT.B,ExtBa=12.10
25/08/2022,17:39:23,TEMP=18.3,BA=5.52,STAT.D,ExtBa=12.10
25/08/2022,17:41:38,TEMP=18.5,BA=5.52,STAT.A,ExtBa=12.10
25/08/2022,17:48:43,TEMP=17.5,BA=5.52,STAT.A,ExtBa=12.10
25/08/2022,17:56:03,TEMP=16.8,BA=5.52,STAT.A,ExtBa=12.10
25/08/2022,18:02:09,TEMP=16.3,BA=5.64,STAT.A,ExtBa=12.10
25/08/2022,18:06:22,TEMP=16.3,BA=5.64,STAT.D,ExtBa=12.10
25/08/2022,18:08:23,TEMP=16.8,BA=5.64,STAT.A,ExtBa=12.10
25/08/2022,18:11:44,TEMP=16.6,BA=5.52,STAT.A,ExtBa=12.10